[[{"header":{"parameterUnit":"m.s-1","parameterCategory":1,"la1":30.2991,"la2":30.254,"lo1":-89.0895,"lo2":-89.0444,"dy":0.0017,"dx":0.0017,"nx":28,"ny":28,"refTime":"2024-02-07T09:00:00:Z","depth":0,"parameterNumber":2,"parameterNumberName":"U-component_of_WINDS"},"data":[0,0,0,0,0,0,0,0,0,0,0,0,0,0,0,0,0,0,0,0,0,0,0,0,0,0,0,0,0,0,0,0,0,0,0,0,0,0,0,0,0,0,0,0,0,0,0,0,0,0,0,0,0,0,0,0,0,0,-3.7352,-3.7354,0,-3.7465,-3.7467,-3.7468,-3.7411,-3.7408,-3.7405,-3.7402,-3.7518,-3.7523,-3.7529,0,0,0,0,0,0,0,0,0,0,0,0,0,-3.7088,-3.7093,-3.7352,-3.7354,-3.7355,-3.7465,-3.7467,-3.7468,-3.7411,-3.7407,-3.7404,-3.74,-3.7516,-3.7523,-3.753,0,0,0,0,0,0,0,0,0,0,0,0,0,-3.7202,-3.7094,-3.7352,-3.734,-3.734,-3.7465,-3.7467,-3.7469,-3.7412,-3.7407,-3.7403,-3.7399,-3.7513,-3.7522,-3.7531,-3.7674,0,0,-3.7557,-3.7561,0,0,0,0,0,0,0,0,-3.7195,-3.7212,-3.734,-3.7341,-3.7341,-3.7419,-3.7416,-3.7538,-3.7413,-3.7385,-3.7402,-3.7397,-3.7488,-3.7499,-3.753,-3.7679,-3.7684,-3.7558,-3.7563,-3.7567,-3.757,0,0,0,0,0,0,0,-3.7188,-3.7206,-3.7397,-3.7342,-3.7343,-3.7329,-3.734,-3.7439,-3.746,-3.7387,-3.7383,-3.7397,-3.7488,-3.7522,-3.7532,-3.7686,-3.7558,-3.7566,-3.7571,-3.7575,-3.796,-3.7964,0,0,0,0,0,0,-3.718,-3.72,-3.7393,-3.74,-3.7256,-3.7337,-3.735,-3.7399,-3.7459,-3.7464,-3.7401,-3.7394,-3.7509,-3.7522,-3.7536,-3.7708,-3.7567,-3.7575,-3.758,-3.7955,-3.7961,-3.7966,0,0,0,0,0,0,-3.7175,-3.7198,-3.7389,-3.7299,-3.7323,-3.7347,-3.7402,-3.7403,-3.7437,-3.7469,-3.7473,-3.7431,-3.7506,-3.7524,-3.764,-3.7711,-3.7579,-3.7587,-3.7949,-3.7957,-3.7963,-3.8052,0,0,0,0,0,0,-3.7167,-3.7196,-3.7251,-3.7301,-3.7328,-3.7491,-3.7406,-3.7409,-3.7452,-3.7444,-3.7499,-3.7504,-3.7504,-3.7627,-3.7649,-3.7721,-3.7594,-3.7943,-3.7952,-3.7961,-3.8043,-3.8062,-3.8078,0,0,0,0,0,-3.7158,-3.7271,-3.7254,-3.7277,-3.7396,-3.7495,-3.751,-3.7508,-3.7458,-3.7513,-3.7534,-3.7502,-3.77,-3.764,-3.7664,-3.7739,-3.7938,-3.795,-3.796,-3.8035,-3.8058,-3.8077,0,0,0,0,0,0,-3.7227,-3.7277,-3.7258,-3.7391,-3.7439,-3.7485,-3.7554,-3.7532,-3.7595,-3.7585,-3.758,-3.7593,-3.7714,-3.7738,-3.767,-3.7881,-3.7812,-3.7828,-3.786,-3.7882,-3.7899,-3.789,-3.7601,0,0,0,0,0,-3.7258,-3.7335,-3.7374,-3.7487,-3.7512,-3.753,-3.7573,-3.7567,-3.7617,-3.7637,-3.7666,-3.7716,-3.7789,-3.7837,-3.7907,-3.8047,-3.8058,-3.8111,-3.8128,-3.8143,-3.8156,-3.8232,-3.8256,-3.8003,-3.8003,-3.8002,0,0,-3.7322,-3.7359,-3.7407,-3.7502,-3.7539,-3.7618,-3.7547,-3.7633,-3.7692,-3.765,-3.7761,-3.7785,-3.784,-3.7969,-3.8028,-3.7993,-3.8229,-3.8157,-3.8168,-3.8174,-3.8246,-3.827,-3.8291,-3.801,-3.8009,-3.8008,0,0,-3.7479,-3.7515,-3.7613,-3.7652,-3.7709,-3.772,-3.7744,-3.7794,-3.7808,-3.792,-3.789,-3.796,-3.8087,-3.8127,-3.8165,-3.834,-3.8312,-3.8363,-3.8453,-3.8527,-3.8547,-3.8565,-3.8626,-3.8648,-3.8377,-3.8377,-3.8377,0,-3.7551,-3.7668,-3.7666,-3.7755,-3.7798,-3.7765,-3.7864,-3.7902,-3.7979,-3.8009,-3.797,-3.8129,-3.8164,-3.8302,-3.8345,-3.8377,-3.8403,-3.8355,-3.8544,-3.8562,-3.8578,-3.8637,-3.866,-3.8383,-3.8382,-3.8382,-3.8381,0,-3.7754,-3.7837,-3.7909,-3.7984,-3.8036,-3.813,-3.8142,-3.8194,-3.8185,-3.8201,-3.8316,-3.8357,-3.8434,-3.8467,-3.8459,-3.8605,-3.8582,-3.8544,-3.8473,-3.8608,-3.8663,-3.8685,-3.8391,-3.8389,-3.8387,-3.8386,0,0,-3.7953,-3.8029,-3.8055,-3.8089,-3.8151,-3.8215,-3.8308,-3.8384,-3.8429,-3.8484,-3.8562,-3.8671,-3.8637,-3.868,-3.8676,-3.8742,-3.8877,-3.8696,-3.8697,-3.8727,-3.904,-3.9066,-3.9092,-3.8861,-3.8865,-3.8869,-3.9035,0,-3.8113,-3.8275,-3.8277,-3.8427,-3.8503,-3.8474,-3.8556,-3.8603,-3.8621,-3.8688,-3.8708,-3.8785,-3.8735,-3.8761,-3.8825,-3.8847,-3.894,-3.8836,-3.8932,-3.8936,-3.8916,-3.9121,-3.9148,-3.9303,-3.9056,-3.906,-3.9062,0,-3.8319,-3.8382,-3.8539,-3.8591,-3.8623,-3.8696,-3.8767,-3.8832,-3.8886,-3.8894,-3.8943,-3.893,-3.9026,-3.8955,-3.9086,-3.9016,-3.9056,-3.9073,-3.9079,-3.9086,-3.9005,-3.9131,-3.9352,-3.9374,-3.9096,-3.9094,-3.9091,0,-3.8447,-3.8571,-3.8681,-3.8712,-3.8776,-3.8828,-3.8857,-3.8906,-3.8952,-3.9014,-3.9044,-3.9117,-3.9156,-3.9213,-3.9221,-3.9168,-3.9353,-3.9282,-3.9362,-3.9362,-3.9399,-3.9396,-3.9627,-3.943,-3.9429,-3.9429,-3.9428,0,-3.8623,-3.872,-3.874,-3.8807,-3.8915,-3.8918,-3.9025,-3.905,-3.9094,-3.9166,-3.9147,-3.9215,-3.9222,-3.9293,-3.93,-3.9407,-3.9426,-3.9435,-3.9435,-3.9435,-3.9434,-3.9459,-3.9448,-3.9435,-3.9434,-3.9432,-3.9431,0,-3.8782,-3.88,-3.8917,-3.8969,-3.8985,-3.9062,-3.9107,-3.9171,-3.9189,-3.928,-3.9302,-3.9329,-3.9411,-3.9425,-3.9522,-3.9527,-3.9655,-3.9645,-3.9636,-3.9634,-3.9712,-3.9704,-3.9966,-4.0,-3.9782,-3.9784,-3.9786,0,-3.8892,-3.8966,-3.9027,-3.9074,-3.9106,-3.9182,-3.9229,-3.9236,-3.9286,-3.9354,-3.9411,-3.9491,-3.9555,-3.9688,-3.9716,-3.9791,-3.9781,-3.9868,-3.9792,-3.979,-3.978,-3.9775,-3.9782,-3.9882,-3.9884,-3.9886,-3.9888,0,-3.9085,-3.909,-3.9159,-3.9232,-3.929,-3.9347,-3.9402,-3.9442,-3.9455,-3.9513,-3.9597,-3.9647,-3.9747,-3.9827,-3.9901,-3.9931,-3.9912,-3.9912,-3.9934,-3.9933,-3.9924,-3.9928,-3.9674,-3.9905,-3.9903,-3.9902,-3.9901,-3.99,-3.9221,-3.9285,-3.9338,-3.9416,-3.9459,-3.9511,-3.9574,-3.9601,-3.9671,-3.9752,-3.9753,-3.9845,-3.9898,-3.9996,-4.0032,-4.0104,-4.0076,-4.0108,-4.0116,-4.0123,-4.0129,-3.9916,-4.0118,-4.0117,-4.0117,-4.0117,-4.0116,0,-3.941,-3.9444,-3.9516,-3.9593,-3.9655,-3.9634,-3.9694,-3.9747,-3.9828,-3.988,-3.9944,-4.0042,-4.012,-4.0156,-4.0233,-4.0284,-4.0277,-4.0304,-4.0298,-4.0305,-4.0151,-4.0123,-4.0308,-4.0308,-4.0308,-4.0308,-4.0308,-4.0308,-3.9516,-3.9624,-3.9636,-3.9766,-3.9799,-3.9889,-3.9925,-3.9973,-4.0015,-4.0124,-4.0189,-4.0213,-4.0258,-4.0339,-4.041,-4.0419,-4.0447,-4.0478,-4.0482,-4.0336,-4.0316,-4.0298,-4.0272,-4.0484,-4.0485,-4.063,-4.0631,-4.0632]},{"header":{"parameterUnit":"m.s-1","parameterCategory":1,"la1":30.2991,"la2":30.254,"lo1":-89.0895,"lo2":-89.0444,"dy":0.0017,"dx":0.0017,"nx":28,"ny":28,"refTime":"2024-02-07T09:00:00:Z","depth":0,"parameterNumber":3,"parameterNumberName":"V-component_of_WINDS"},"data":[0,0,0,0,0,0,0,0,0,0,0,0,0,0,0,0,0,0,0,0,0,0,0,0,0,0,0,0,0,0,0,0,0,0,0,0,0,0,0,0,0,0,0,0,0,0,0,0,0,0,0,0,0,0,0,0,0,0,1.8609,1.8608,0,1.8569,1.8569,1.8568,1.8476,1.8474,1.8472,1.847,1.8435,1.8436,1.8437,0,0,0,0,0,0,0,0,0,0,0,0,0,1.8614,1.8614,1.8609,1.8608,1.8608,1.8569,1.8569,1.8568,1.8476,1.8474,1.8471,1.8469,1.8435,1.8436,1.8437,0,0,0,0,0,0,0,0,0,0,0,0,0,1.8597,1.8614,1.8609,1.8557,1.8552,1.8569,1.8569,1.8568,1.8477,1.8474,1.8471,1.8468,1.8434,1.8436,1.8437,1.8503,0,0,1.8441,1.8441,0,0,0,0,0,0,0,0,1.8598,1.8597,1.8565,1.8561,1.8555,1.8524,1.8557,1.8546,1.8477,1.8506,1.847,1.8467,1.8467,1.8466,1.8465,1.8501,1.85,1.8441,1.8442,1.8442,1.8443,0,0,0,0,0,0,0,1.8599,1.8598,1.8593,1.8565,1.8559,1.8539,1.8533,1.8555,1.8503,1.8503,1.8496,1.8492,1.8464,1.8464,1.8463,1.8499,1.8441,1.8442,1.8443,1.8443,1.8593,1.8596,0,0,0,0,0,0,1.8607,1.8599,1.8595,1.8592,1.857,1.8541,1.8535,1.8537,1.8503,1.8495,1.8495,1.8488,1.8463,1.8462,1.8462,1.8539,1.8442,1.8444,1.8444,1.8589,1.8593,1.8597,0,0,0,0,0,0,1.8607,1.8607,1.8596,1.8594,1.8591,1.8544,1.8548,1.8538,1.8537,1.8497,1.8488,1.8503,1.8461,1.846,1.8494,1.8537,1.8444,1.8445,1.8586,1.8591,1.8595,1.8693,0,0,0,0,0,0,1.8608,1.8608,1.863,1.8595,1.8591,1.8627,1.855,1.8539,1.8539,1.853,1.8502,1.8495,1.8458,1.8493,1.8495,1.8537,1.8446,1.8582,1.8588,1.8593,1.8686,1.8701,1.8713,0,0,0,0,0,1.8608,1.866,1.8632,1.8632,1.8618,1.8629,1.8627,1.8582,1.8543,1.8567,1.8541,1.8496,1.8532,1.8497,1.8499,1.8542,1.8579,1.8586,1.8593,1.868,1.8698,1.8713,0,0,0,0,0,0,1.8702,1.8654,1.8622,1.8663,1.8651,1.8613,1.8641,1.8602,1.8602,1.8594,1.854,1.8535,1.8577,1.8563,1.8525,1.8606,1.8548,1.8556,1.8613,1.863,1.8644,1.8647,1.8447,0,0,0,0,0,1.8727,1.8738,1.8696,1.8737,1.8732,1.8689,1.8692,1.8658,1.8644,1.8639,1.8615,1.8605,1.8615,1.8622,1.8627,1.8684,1.8679,1.8715,1.8729,1.874,1.8748,1.878,1.8797,1.862,1.862,1.862,0,0,1.878,1.8755,1.8765,1.8755,1.8741,1.8757,1.8684,1.8703,1.8715,1.8642,1.8672,1.8656,1.8641,1.8688,1.8707,1.8677,1.8796,1.8749,1.8759,1.876,1.879,1.8806,1.8821,1.8625,1.8624,1.8623,0,0,1.8883,1.8864,1.8897,1.8886,1.8866,1.8837,1.8846,1.8815,1.8801,1.883,1.8778,1.8793,1.8808,1.8801,1.88,1.8906,1.8866,1.891,1.8982,1.9014,1.9028,1.904,1.9081,1.9096,1.8918,1.8918,1.8918,0,1.8951,1.897,1.892,1.8942,1.8942,1.8876,1.8912,1.8903,1.8888,1.889,1.8856,1.8878,1.8863,1.8909,1.8935,1.8935,1.8946,1.8912,1.903,1.9041,1.9052,1.909,1.9105,1.8923,1.8923,1.8922,1.8922,0,1.9056,1.907,1.91,1.9086,1.9088,1.9117,1.9075,1.9084,1.9052,1.9028,1.9062,1.9043,1.9046,1.9054,1.9023,1.9097,1.9079,1.9039,1.898,1.9075,1.9111,1.9124,1.8931,1.8929,1.8928,1.8926,0,0,1.9215,1.9175,1.9187,1.9181,1.9157,1.9168,1.9197,1.9198,1.9208,1.9201,1.9226,1.9243,1.9206,1.9205,1.9173,1.9202,1.9291,1.9158,1.9157,1.9185,1.9375,1.9407,1.9424,1.9264,1.9267,1.9269,1.9377,0,1.9313,1.9356,1.9315,1.9368,1.9382,1.9323,1.9348,1.9338,1.9318,1.933,1.9308,1.9322,1.9271,1.927,1.9296,1.9275,1.9329,1.9266,1.929,1.9291,1.9296,1.9442,1.9474,1.9577,1.939,1.9393,1.9394,0,1.9433,1.9431,1.9485,1.9461,1.9466,1.9489,1.9489,1.95,1.9489,1.9473,1.9474,1.9435,1.9465,1.9408,1.945,1.9409,1.9417,1.9409,1.9412,1.9412,1.9349,1.9449,1.9608,1.9625,1.9415,1.9413,1.9412,0,1.9546,1.9557,1.9592,1.9589,1.9561,1.9579,1.9569,1.9555,1.956,1.9561,1.9565,1.957,1.9574,1.9581,1.9547,1.9507,1.9595,1.9534,1.9585,1.9586,1.9606,1.9605,1.9771,1.961,1.9609,1.9609,1.9609,0,1.9661,1.9697,1.9643,1.9664,1.9705,1.9658,1.9701,1.9684,1.9674,1.9694,1.9643,1.9664,1.9617,1.9634,1.9608,1.9649,1.9651,1.9641,1.9634,1.9646,1.9647,1.965,1.9643,1.9613,1.9612,1.9611,1.9611,0,1.9793,1.9758,1.9792,1.9764,1.9758,1.9789,1.9766,1.9787,1.9764,1.9791,1.9795,1.976,1.9778,1.9745,1.9758,1.9741,1.98,1.9781,1.9803,1.9798,1.9851,1.9848,2.0026,2.0048,1.9871,1.9873,1.9874,0,1.9869,1.9895,1.987,1.9879,1.9872,1.9887,1.9892,1.985,1.9858,1.985,1.9873,1.9886,1.9894,1.9926,1.9904,1.9916,1.9898,1.996,1.9899,1.9912,1.9901,1.9901,1.9905,1.9972,1.9974,1.9976,1.9977,0,2.0008,1.999,1.9998,2.0002,2.001,2.0011,2.0009,2.002,1.9975,1.9988,2.0004,2.0011,2.0026,2.0041,2.0048,2.0041,2.0004,1.9997,2.001,2.0023,2.0035,2.0032,1.9838,1.9993,1.9991,1.999,1.9989,1.9989,2.0115,2.0138,2.0124,2.0137,2.0131,2.0131,2.015,2.013,2.0143,2.0151,2.0126,2.015,2.0143,2.0148,2.0146,2.0166,2.0139,2.0157,2.0162,2.0167,2.0177,2.0032,2.0167,2.0166,2.0166,2.0166,2.0165,0,2.0254,2.0243,2.0255,2.0253,2.0265,2.0227,2.0224,2.0237,2.0257,2.0253,2.0263,2.0286,2.0301,2.0282,2.0295,2.0316,2.0299,2.0321,2.0319,2.0319,2.0199,2.0187,2.0334,2.0334,2.0334,2.0334,2.0334,2.0334,2.0327,2.0363,2.0345,2.038,2.037,2.0391,2.0393,2.0395,2.0392,2.0418,2.0431,2.0418,2.0409,2.0422,2.0436,2.0431,2.0439,2.0467,2.0456,2.0344,2.0327,2.0311,2.03,2.0469,2.0469,2.0575,2.0576,2.0576]}]]